User: anonymous   Login
Location: Killam
(52.7910°N, 111.8608°W)
Time: 18:02:10
(UTC+00:00)
Language:

NOAA 16 DEB - Orbit

View from above orbital plane
View from above orbital plane
View from above satellite
View from above satellite

Ground track
Ground track

The orbit data is extracted from the following two-line orbital elements,

1 41539U 00055NP  24146.24206915  .00009539  00000-0  36148-2 0  9998
2 41539  98.8028 253.6682 0026359 178.9447 181.1795 14.31134659429987
Epoch (UTC): 25 May 2024 05:48:34
Eccentricity: 0.0026359
inclination: 98.8028°
perigee height: 769 km
apogee height: 807 km
right ascension of ascending node: 253.6682°
argument of perigee: 178.9447°
revolutions per day: 14.31134659
mean anomaly at epoch: 181.1795°
orbit number at epoch: 42998

The dashed part of the orbit path shows where the satellite is in the earth's shadow,  

DLR